RH
23 23 22 22 21 21 18 18 19 16 15 15 14 13 13 14 16 16 14 17 20 21 21 22 23 22 23 22 22 20 15 9 8 18 21 13 7 10 14 13 15 12 11 11 11 11 8 10 8 8 11 13 22 29 27 24 31 40 44 51 58 59 52 49 53 56 57 62 72 74 77 76 73 72 63 64 69 74 78 78 79 73 64 55 56 61 63 70
22 22 22 21 21 20 18 17 18 18 16 15 15 13 12 14 15 15 13 15 18 21 21 22 23 22 22 21 21 17 12 11 24 39 26 11 10 11 14 15 16 14 12 11 10 10 10 10 8 9 9 13 22 25 24 25 28 36 51 55 53 54 47 50 54 53 58 66 74 77 79 75 75 72 60 73 79 72 79 81 81 78 66 58 58 63 68 71
22 21 21 21 21 20 18 17 17 19 17 16 15 13 13 14 15 14 12 13 16 20 21 22 23 23 21 20 19 13 16 28 39 41 21 11 14 10 12 14 15 16 13 12 10 9 9 9 7 8 9 12 18 19 19 24 27 35 49 47 45 52 48 55 59 56 64 71 75 79 78 74 75 70 61 77 82 74 81 80 78 77 69 66 64 66 69 70
21 21 22 21 20 19 19 17 18 19 17 16 15 14 14 13 14 12 11 13 15 19 20 22 23 21 20 20 16 12 28 41 34 25 13 9 13 10 12 13 14 16 14 12 11 9 8 8 8 8 10 14 17 16 16 20 25 29 41 42 42 50 48 55 62 60 69 73 76 79 77 74 74 73 69 76 81 80 81 76 77 75 69 69 66 65 68 70
21 22 21 21 20 19 18 18 19 18 16 16 16 15 14 13 13 12 11 12 14 18 19 22 22 20 21 18 14 20 34 36 25 19 12 8 11 11 13 14 15 15 14 13 11 9 8 8 8 9 12 17 18 17 16 16 20 23 32 38 41 49 47 53 63 63 70 75 78 80 76 71 70 73 75 76 81 84 77 71 76 72 65 66 64 63 66 69
21 22 21 21 20 19 18 18 18 16 15 16 15 15 14 13 12 11 11 11 13 17 20 23 21 21 20 15 19 30 32 24 19 16 10 10 13 12 12 14 15 15 14 12 11 10 9 9 9 12 15 19 18 17 16 12 16 24 28 32 41 44 42 54 64 63 68 74 77 77 73 75 75 73 76 76 80 83 70 65 72 68 60 59 61 63 64 67
22 22 21 21 20 19 18 17 16 15 15 15 15 16 15 13 12 11 11 11 13 16 21 22 20 22 19 17 29 39 34 23 17 13 10 12 13 12 12 12 13 12 11 12 14 11 9 10 10 12 16 19 18 15 13 10 16 26 27 32 39 38 42 56 63 63 66 67 72 75 73 80 80 73 75 76 78 77 64 63 68 62 56 55 60 64 63 65
22 23 22 22 21 20 18 17 16 15 15 15 15 16 15 13 11 11 11 11 13 16 21 21 20 21 17 22 32 35 36 26 15 12 11 11 13 13 10 10 10 8 10 13 14 11 10 11 10 12 16 17 15 12 9 13 25 30 28 34 37 37 48 57 59 66 68 65 72 77 75 78 79 74 75 76 75 70 61 64 66 59 56 53 56 61 62 65
23 23 23 23 22 22 20 18 17 15 15 14 15 16 15 13 11 12 11 11 13 16 21 21 22 20 20 34 35 28 27 20 13 12 11 11 13 11 9 10 8 6 9 12 13 12 12 13 12 13 16 13 11 11 9 17 27 24 22 31 36 39 50 57 60 67 68 70 75 76 76 78 79 74 72 74 73 67 61 63 65 61 58 53 53 57 62 68
24 24 24 25 25 25 22 20 18 17 16 15 16 17 15 14 12 12 11 11 14 18 22 21 22 21 26 43 40 25 21 16 15 14 11 12 12 11 11 14 9 6 10 12 12 14 13 13 14 12 12 11 9 10 10 14 16 13 14 23 35 41 49 57 59 66 68 68 74 75 78 81 78 72 72 74 72 67 63 66 69 64 59 54 52 56 63 68
25 26 27 27 27 28 25 23 20 17 16 16 17 18 16 14 12 12 11 12 15 20 23 22 20 20 28 41 37 22 15 17 18 15 13 13 13 11 12 16 14 8 9 12 10 11 12 11 12 9 9 10 9 10 10 11 11 11 12 18 36 42 47 57 56 65 65 61 72 76 78 81 76 74 76 74 70 70 68 70 73 67 63 57 54 57 62 64
26 28 29 30 31 30 28 25 22 19 17 17 18 18 17 15 13 12 11 13 18 22 24 22 19 23 35 44 34 16 9 14 19 18 17 16 14 13 13 15 16 12 10 11 9 9 9 9 9 8 9 8 9 11 10 12 9 10 12 18 39 42 45 58 58 63 59 55 71 71 75 85 79 77 77 72 71 74 72 72 75 70 65 62 59 58 58 60
28 30 32 34 33 32 29 26 24 21 19 18 19 19 18 16 13 12 14 18 21 22 23 22 20 29 42 38 21 10 8 12 17 19 19 17 15 13 14 15 15 15 11 10 9 8 8 8 8 8 8 8 10 10 9 12 8 12 18 22 39 43 43 52 53 61 55 57 70 60 68 85 79 76 74 74 76 76 76 73 73 71 68 66 63 59 57 57
31 32 34 35 34 33 31 28 27 24 22 20 19 20 18 16 14 16 20 21 22 23 22 21 21 36 47 32 13 9 11 13 16 20 19 17 17 14 14 15 15 15 12 11 9 8 9 7 8 8 9 9 10 10 10 12 10 14 20 24 38 41 43 49 53 59 50 57 68 50 58 74 68 71 73 76 77 73 76 74 72 73 72 68 62 60 58 56
33 34 34 35 34 33 32 32 31 27 25 22 21 21 18 16 18 22 24 22 26 26 21 21 23 40 51 33 14 10 11 12 14 16 15 14 16 16 15 15 14 13 11 11 9 8 9 7 8 9 10 9 9 11 12 16 22 19 16 25 37 36 38 47 53 53 42 56 66 50 61 73 62 65 71 76 78 73 72 74 75 74 73 69 64 62 59 58
35 35 34 34 34 34 34 34 33 31 28 24 22 21 18 18 22 26 24 22 25 22 25 31 30 37 42 27 15 13 11 11 10 9 9 8 11 14 14 14 13 12 10 10 9 9 8 7 9 9 9 9 9 12 14 18 27 25 17 23 32 32 30 35 47 49 45 60 67 55 63 72 64 63 71 77 78 75 73 76 77 75 74 70 67 63 60 65
36 37 36 35 35 35 35 35 34 32 29 24 23 21 21 23 22 23 22 22 26 25 30 38 38 38 33 21 18 17 13 11 8 8 8 6 7 8 11 13 12 11 10 9 9 9 8 7 9 9 9 10 9 12 15 18 24 25 21 19 25 30 26 30 45 49 50 61 66 61 57 62 67 66 71 78 78 75 74 76 76 75 74 70 68 65 65 73
38 40 40 38 38 37 35 35 34 32 30 25 23 23 23 23 23 29 32 35 43 43 41 42 41 37 29 22 22 19 13 10 9 9 8 7 6 5 9 12 11 11 11 10 11 9 9 8 9 10 10 10 10 11 15 17 18 20 20 19 24 27 25 34 44 43 49 56 62 68 59 59 70 70 71 77 77 74 73 74 73 72 72 70 69 67 72 77
40 42 42 41 40 38 36 36 33 32 30 25 25 30 31 30 33 42 45 48 48 42 41 44 37 26 20 20 21 18 12 9 9 8 6 6 6 8 10 11 10 10 11 12 13 10 9 9 10 11 11 10 10 10 12 12 12 13 13 15 19 19 19 28 33 33 43 51 60 69 63 60 69 73 74 74 75 74 72 74 74 72 71 70 69 70 75 76
41 42 42 41 41 39 38 36 33 33 30 25 31 43 48 45 43 47 53 56 50 34 28 34 31 23 18 17 15 13 9 7 8 5 5 6 8 10 10 10 11 11 12 12 12 10 9 10 11 11 10 10 9 9 10 9 9 10 10 11 13 13 12 15 20 28 40 49 57 63 61 61 67 72 72 71 74 74 72 75 75 73 71 69 71 72 74 75
39 41 40 39 40 39 38 36 34 34 30 25 31 48 54 45 35 35 42 47 43 34 27 26 26 23 18 16 14 11 8 7 7 6 6 7 9 12 11 12 13 15 15 12 11 10 9 11 12 10 9 8 8 8 9 9 9 9 10 11 11 12 12 13 16 30 44 45 47 57 63 63 66 70 71 70 74 73 70 71 72 72 69 69 73 72 73 81
38 40 39 39 40 39 37 36 33 34 33 24 29 48 48 32 23 20 23 28 29 32 33 27 24 23 19 17 17 15 12 8 7 8 9 9 10 12 13 13 14 17 15 13 13 12 11 12 10 8 8 8 8 9 8 9 9 9 9 9 10 13 13 13 15 27 41 38 36 47 56 61 65 68 70 71 71 68 65 65 67 68 67 70 74 74 78 88
36 38 38 38 38 38 36 33 32 35 34 24 26 38 30 14 14 13 16 25 24 25 31 31 28 26 24 20 16 15 14 9 8 8 8 10 12 12 13 13 14 15 13 14 16 15 14 12 9 8 8 8 8 8 9 9 8 8 8 8 10 10 9 12 17 23 31 32 35 45 53 62 69 70 71 69 67 65 64 66 68 68 65 66 70 74 80 85
34 37 37 33 34 37 34 30 32 32 30 28 23 19 11 8 11 10 18 29 26 21 21 23 25 25 23 19 13 12 12 10 9 8 8 11 12 11 12 13 14 15 13 14 15 15 15 11 8 8 8 9 9 9 9 9 9 8 7 8 8 8 7 10 15 19 24 27 38 50 56 64 72 76 75 70 67 67 66 69 72 72 67 64 68 75 77 78
31 37 34 27 30 33 29 30 33 32 33 33 23 11 8 11 10 9 22 34 32 25 17 16 21 21 17 13 10 10 11 11 10 8 8 10 11 11 12 12 13 15 15 13 13 14 13 10 9 9 9 9 8 10 9 8 10 9 7 7 6 7 7 7 11 18 21 22 30 37 39 51 68 77 76 72 71 70 68 68 70 74 72 67 69 75 76 76
29 36 32 27 27 28 35 38 35 39 41 31 21 16 14 15 12 12 28 39 33 23 16 17 19 16 13 11 10 10 11 12 10 7 8 9 8 9 10 12 12 13 13 11 13 14 11 10 10 9 10 10 8 9 9 8 9 9 8 8 6 7 7 8 12 19 21 19 22 24 23 34 51 62 69 73 74 73 71 67 66 72 74 69 71 75 75 75
27 32 31 26 23 28 43 41 32 38 38 24 19 21 17 16 16 18 34 46 37 21 14 15 15 12 11 10 9 12 15 14 10 8 9 8 8 8 10 13 12 12 11 11 16 16 11 10 10 9 9 9 9 9 8 8 8 8 9 7 8 9 8 9 8 12 17 16 19 26 26 28 35 47 59 68 76 76 73 71 67 72 75 70 72 75 74 74
24 28 30 26 21 24 33 32 29 33 28 19 19 21 19 18 19 23 40 48 32 16 12 12 11 10 9 10 9 11 13 11 10 11 9 7 9 8 10 11 11 12 11 13 18 16 11 10 10 9 9 9 10 9 8 7 7 8 8 7 9 8 7 10 9 11 14 12 22 34 30 25 36 54 63 65 76 79 74 71 67 70 74 71 73 75 72 72
21 26 29 27 25 28 30 30 30 29 24 21 22 22 20 19 23 30 44 46 24 11 13 11 11 11 10 12 11 10 10 9 11 12 8 8 9 8 11 11 10 12 11 13 16 14 11 11 11 9 9 10 10 9 8 7 8 8 7 8 8 7 9 9 7 11 14 14 22 27 24 23 36 60 72 66 69 74 70 68 64 65 71 71 73 75 73 74
20 23 27 29 30 34 37 34 28 27 27 24 23 21 20 26 34 41 48 41 21 12 13 11 12 13 12 12 12 11 11 10 10 10 9 10 9 8 10 10 9 12 12 12 13 12 10 10 12 11 10 9 8 8 7 6 8 6 8 10 7 10 14 15 19 17 15 19 19 14 19 26 32 50 67 65 60 61 61 64 64 64 70 71 71 74 74 76
19 19 24 28 29 33 40 36 27 26 27 25 24 22 25 34 42 52 49 29 16 14 12 11 12 12 12 12 12 12 11 10 11 11 11 10 10 10 11 12 12 14 17 16 12 12 11 10 13 10 9 8 6 8 8 7 8 5 10 12 10 20 23 30 42 28 16 25 21 14 18 24 31 40 48 53 50 48 51 58 62 64 69 70 69 71 73 74
19 18 21 25 27 29 34 31 23 22 25 25 25 26 37 46 46 52 44 21 17 17 11 12 12 11 13 12 11 12 11 11 11 11 12 12 13 13 12 15 16 17 22 21 15 15 13 11 12 9 9 9 6 9 10 10 8 6 12 11 12 26 26 33 48 31 24 32 20 16 20 23 37 43 39 43 42 40 44 49 55 60 65 67 68 69 70 71
19 17 19 22 24 24 24 22 19 21 23 25 29 33 44 52 50 47 37 23 19 15 10 12 10 10 13 12 12 11 10 12 11 11 12 11 14 14 12 14 15 15 20 19 16 17 16 13 11 10 10 8 7 11 11 11 10 6 11 12 14 23 20 28 42 31 29 30 13 15 23 23 35 38 34 37 35 36 41 44 51 57 60 63 66 68 68 68
20 17 19 20 21 22 21 21 20 22 24 27 36 41 44 52 50 39 29 22 15 10 10 11 10 11 13 12 12 11 11 12 11 11 12 12 14 15 14 13 13 12 15 19 19 17 18 18 14 11 11 9 8 10 10 10 11 9 9 12 17 21 15 20 31 23 20 23 16 18 23 26 33 32 31 33 33 39 44 47 53 55 57 61 63 65 66 65
18 18 20 21 21 21 22 24 23 24 27 33 43 49 51 54 46 29 22 17 13 11 11 9 9 12 13 12 12 10 11 12 11 11 12 13 14 15 16 13 12 12 15 22 21 16 18 18 14 12 10 9 8 9 9 8 11 12 10 11 14 15 13 18 26 22 18 23 23 21 23 30 32 31 35 36 36 43 47 48 53 54 58 61 61 64 63 62
17 20 21 21 21 22 24 25 24 25 31 39 49 53 51 48 36 22 18 15 13 13 13 13 12 12 13 14 12 10 11 11 12 12 11 12 14 14 14 12 11 13 16 21 19 16 20 19 14 12 11 10 10 10 8 7 12 14 10 11 11 9 11 17 25 29 26 24 24 24 27 34 37 35 38 41 39 40 45 47 49 52 58 62 62 63 61 60
19 25 28 24 21 22 25 24 21 26 32 40 53 57 47 35 26 18 14 14 13 12 15 19 16 13 14 15 13 11 10 10 11 12 12 12 14 14 14 13 12 13 14 17 17 15 18 18 15 14 16 16 12 11 10 7 11 13 10 12 11 10 14 14 19 33 33 24 25 29 29 34 43 43 40 43 41 38 43 46 46 50 56 59 61 60 58 58
23 32 33 26 20 22 25 23 22 28 33 38 54 61 47 31 20 13 11 13 13 12 16 21 18 15 16 19 17 12 10 11 10 11 13 14 18 17 15 14 13 13 12 15 19 18 17 19 19 16 19 19 13 13 16 13 13 12 10 10 9 11 17 17 18 24 26 24 26 30 30 31 40 42 40 42 43 41 44 46 46 48 50 54 57 56 55 55
30 36 34 23 19 23 24 24 26 30 33 40 51 51 37 26 18 12 12 14 13 14 18 19 17 18 20 20 20 16 14 15 13 13 14 17 22 19 15 16 14 14 16 18 21 23 22 24 25 21 18 19 17 18 21 20 16 14 11 10 12 14 15 19 21 17 18 26 26 28 36 40 42 42 39 40 42 44 46 47 46 47 48 51 54 54 53 53
31 31 31 20 17 23 25 26 29 31 34 41 45 38 26 21 17 12 13 14 14 15 17 18 18 20 21 19 19 18 17 19 18 16 17 19 22 20 16 16 14 14 18 19 21 28 31 31 30 27 22 21 23 21 20 22 19 18 18 16 17 18 15 19 22 16 18 29 30 34 43 43 41 40 36 36 41 44 45 46 46 46 47 48 49 53 53 51
40 30 30 21 18 25 26 27 31 33 36 38 36 29 22 20 16 13 14 14 14 15 15 17 19 20 20 19 19 18 18 19 18 18 20 20 23 23 18 17 17 16 19 23 24 26 32 34 34 32 28 25 25 19 16 19 19 17 20 19 19 18 17 22 27 24 23 25 29 39 42 38 38 39 37 39 44 47 47 45 44 45 47 50 55 58 58 56
45 34 30 22 22 27 26 29 33 33 32 31 28 23 19 18 16 14 14 14 15 15 14 16 17 18 18 17 17 18 18 20 18 18 21 21 22 22 19 18 18 17 21 27 25 21 30 39 38 35 33 26 22 20 17 17 17 16 16 17 18 17 17 22 27 27 27 25 30 44 49 47 48 46 42 43 44 45 46 47 49 52 55 59 64 67 66 66
37 34 26 19 24 24 22 30 35 33 29 25 21 18 15 15 15 14 15 15 16 15 15 16 16 17 17 15 17 18 18 20 19 17 19 21 21 20 19 20 20 21 26 29 25 23 31 38 37 42 46 34 21 19 18 17 17 17 18 16 15 17 17 18 21 25 27 28 35 47 51 49 53 54 48 45 45 46 47 50 54 58 64 68 73 77 79 77
39 40 30 21 20 18 19 26 30 30 28 23 18 15 15 15 15 15 15 15 16 15 15 15 15 15 15 14 16 17 17 20 20 18 19 23 22 19 17 19 22 24 25 27 27 22 27 38 45 53 56 44 33 28 24 22 20 19 21 16 14 16 12 13 22 26 29 32 34 43 49 49 53 57 55 53 55 58 57 57 59 64 73 80 84 87 88 85
44 43 35 26 18 16 21 23 21 22 23 24 23 19 17 18 15 14 15 14 14 14 14 14 14 14 14 14 15 16 15 17 18 20 22 23 22 18 16 19 22 24 28 36 35 24 27 40 46 51 50 42 44 43 34 31 26 21 20 14 13 15 9 15 23 22 32 43 41 43 52 56 59 60 61 64 68 72 73 69 70 73 79 86 89 90 92 90
41 37 36 35 27 21 24 21 17 19 20 26 31 23 17 19 16 13 13 14 14 14 14 15 14 15 15 15 15 17 18 18 20 24 25 24 22 18 16 18 20 25 33 40 38 30 34 40 41 48 47 41 47 47 36 31 25 19 19 18 22 22 12 14 18 18 36 49 45 49 59 66 70 69 70 74 75 79 81 78 79 81 82 86 90 91 93 93
40 38 38 43 43 35 29 21 16 18 19 24 28 21 16 17 16 13 13 13 15 15 15 15 15 16 18 17 17 24 28 26 26 28 27 25 23 18 17 16 17 26 29 27 31 36 38 36 32 36 38 33 35 34 26 21 18 19 28 33 38 35 21 19 22 25 35 39 44 62 72 75 79 76 76 81 80 80 82 80 83 85 84 86 88 88 90 91
42 42 37 43 49 45 34 23 18 17 19 23 23 18 17 17 15 15 13 12 15 16 17 18 16 16 20 21 25 33 37 35 36 34 28 26 25 21 20 17 16 22 20 15 24 32 35 35 26 22 26 24 20 21 19 16 18 28 40 43 45 48 45 45 49 48 47 48 58 75 80 79 82 79 76 82 83 80 78 78 81 83 84 86 87 88 89 89
46 48 45 45 53 55 43 29 23 18 21 34 33 20 16 17 15 15 15 17 20 18 18 21 19 19 22 27 33 39 39 38 40 38 31 28 29 26 24 23 19 18 14 14 20 23 29 38 29 19 24 24 19 20 18 17 26 41 47 46 48 57 60 61 63 60 61 67 70 74 79 80 79 79 78 79 79 76 73 75 80 83 86 89 90 90 88 86
52 53 57 59 63 64 50 33 27 21 20 35 36 20 15 19 17 16 18 22 24 20 19 22 23 22 23 26 31 32 30 30 34 35 30 27 30 29 25 25 21 17 15 16 17 18 22 32 31 27 31 29 23 23 19 21 39 51 50 47 52 62 67 69 70 67 67 73 71 70 80 80 71 73 78 76 73 71 72 80 85 85 88 91 92 93 90 86
54 50 58 70 74 71 58 38 29 26 22 26 27 20 18 19 17 19 21 19 19 20 20 23 25 26 25 24 26 25 23 23 25 26 23 23 26 26 24 24 20 17 19 19 18 20 22 28 35 38 39 36 28 25 21 23 41 56 55 52 57 69 76 76 75 74 74 77 78 81 90 88 74 73 78 75 71 71 77 85 87 87 88 91 93 93 91 90
64 58 61 72 72 66 54 35 24 25 22 20 21 19 18 17 16 22 26 21 15 16 20 22 23 27 30 27 24 22 20 20 21 21 19 20 21 20 19 21 18 16 21 21 20 24 25 26 33 36 40 44 37 26 23 37 61 72 65 57 57 66 76 78 77 76 73 76 85 91 93 88 78 78 81 79 77 77 80 85 89 91 91 92 94 93 91 91
Wind_Speed
18 18 18 17 17 16 15 14 14 14 14 14 14 14 14 14 14 13 13 13 12 13 13 13 14 14 14 13 12 13 14 14 13 10 8 8 4 8 8 4 3 3 3 5 9 9 11 13 14 13 10 7 3 3 5 5 3 3 1 2 2 2 2 3 4 4 4 3 4 5 4 6 3 2 2 3 5 4 4 3 1 2 2 9 18 22 25 26
20 19 18 18 17 16 16 15 14 14 14 14 14 14 14 14 14 13 14 13 13 13 13 13 14 14 12 11 11 12 14 15 13 10 8 5 4 8 7 6 6 5 4 7 10 8 6 7 9 8 5 4 3 3 4 3 4 4 2 3 3 4 3 4 6 4 3 5 5 4 4 6 4 4 5 2 1 2 4 2 2 2 3 13 21 23 24 27
21 20 19 18 18 17 16 15 14 14 14 14 14 14 14 14 14 13 13 13 13 13 13 13 13 12 11 10 10 12 14 11 6 5 3 2 7 8 8 8 8 7 7 9 11 10 9 10 11 8 4 4 3 4 3 3 4 4 3 3 5 5 4 3 6 5 5 7 6 4 3 4 4 4 4 3 4 3 3 3 2 4 7 14 17 19 22 24
21 21 19 18 18 17 17 16 15 14 14 14 14 14 14 14 13 13 13 13 14 13 13 13 12 11 9 9 9 11 11 5 1 3 1 4 5 6 8 10 8 9 10 9 10 11 12 12 10 4 3 5 4 4 3 4 3 2 4 5 6 5 4 4 6 5 5 8 7 5 4 3 4 2 3 6 5 2 4 5 5 7 11 16 16 18 20 20
22 22 20 19 19 18 17 16 15 15 14 14 14 14 14 14 13 13 13 13 13 13 13 12 11 9 8 9 8 10 7 3 1 4 4 5 5 5 7 9 9 10 9 9 9 8 10 9 5 2 2 4 4 3 4 6 3 1 1 6 8 6 5 5 6 5 6 7 7 6 5 4 3 1 3 8 6 4 6 6 6 7 12 18 17 17 19 17
23 22 21 21 20 19 18 17 15 15 14 14 14 13 13 13 13 12 12 13 13 13 13 11 9 8 8 8 7 7 3 1 3 4 6 5 5 4 5 8 10 9 9 8 7 4 5 4 0 1 2 4 6 5 6 6 3 3 2 7 10 7 6 5 5 6 7 8 7 6 5 4 4 2 3 7 5 5 6 7 7 6 11 20 19 17 18 17
23 23 22 22 21 20 19 17 16 14 14 13 13 13 13 13 12 12 12 12 12 12 11 10 8 7 8 6 5 4 2 4 6 6 7 5 4 4 5 8 9 9 10 8 5 3 3 2 1 2 3 5 6 7 7 5 2 6 3 7 9 8 9 7 7 7 8 9 8 7 5 5 6 5 3 5 5 4 6 8 9 7 10 18 18 16 16 17
24 24 23 22 22 21 19 17 16 14 13 12 12 12 12 12 12 11 11 11 12 12 10 8 7 6 8 5 2 3 0 5 5 10 8 6 5 4 7 8 8 10 11 9 6 3 1 3 4 3 3 5 4 6 8 7 3 3 3 6 7 6 8 8 8 7 7 7 7 8 6 6 8 5 4 6 6 4 9 9 9 9 8 11 15 17 17 15
25 24 24 23 22 22 20 18 16 14 13 12 11 11 12 12 11 11 11 11 11 11 9 7 5 5 7 4 2 2 3 4 7 11 9 7 6 5 7 7 9 11 10 9 8 3 0 1 6 4 3 6 4 7 7 4 2 2 2 5 7 6 8 8 8 9 7 5 7 9 5 6 6 3 2 6 6 6 9 10 10 10 9 9 11 15 16 12
25 25 25 24 23 22 20 18 16 14 13 11 11 11 11 11 10 10 10 11 10 9 8 5 4 3 5 4 4 2 3 5 7 9 8 7 6 6 6 7 9 10 9 7 9 7 5 6 8 4 4 6 4 7 6 2 1 5 4 4 9 9 8 7 9 9 6 5 8 8 5 4 4 2 2 6 5 6 9 10 10 9 9 10 9 11 14 12
25 25 25 24 23 22 20 18 16 14 13 12 11 11 11 11 10 10 10 10 9 8 6 4 3 2 3 3 4 2 5 7 7 8 8 6 6 6 7 8 9 11 10 6 10 12 10 12 9 4 3 4 5 8 6 4 5 5 4 2 6 8 4 5 8 8 4 4 7 8 3 1 1 2 5 7 5 7 10 9 9 9 8 10 10 10 11 11
25 25 25 24 22 21 19 18 16 14 13 11 11 10 10 10 9 9 10 10 8 5 4 3 2 2 2 3 3 7 6 5 7 10 10 5 3 4 6 9 9 9 10 7 8 13 14 16 10 3 5 3 5 5 5 7 8 7 4 4 4 4 2 6 5 6 6 4 7 9 4 2 3 6 7 8 7 8 10 9 8 8 7 8 8 9 9 11
25 25 24 23 21 20 18 17 15 13 12 11 11 10 9 9 9 9 9 8 6 4 3 2 0 1 3 0 7 7 3 4 5 12 14 7 2 3 6 10 11 10 11 10 10 12 13 13 7 3 5 2 3 4 4 6 5 6 5 3 4 2 4 8 4 5 6 5 10 9 1 5 8 10 8 7 9 10 9 9 8 7 7 6 6 8 9 10
25 24 23 22 20 18 17 16 14 13 11 11 10 9 8 8 8 7 6 5 4 3 2 1 1 1 2 5 9 7 6 8 7 15 15 10 7 5 8 12 14 14 13 15 15 12 10 11 6 2 3 2 3 5 6 5 3 4 5 3 3 3 6 7 6 8 6 4 9 8 0 6 8 11 10 7 10 12 10 8 8 7 6 6 6 8 8 9
25 24 22 20 18 17 16 14 13 12 10 10 9 8 7 6 6 5 4 3 2 2 1 1 1 1 2 7 10 6 5 6 10 18 16 13 12 9 11 14 15 15 12 14 14 11 10 9 4 1 3 4 4 5 6 4 4 2 1 4 2 5 5 3 4 11 9 4 5 7 1 6 6 11 10 7 9 10 10 8 7 7 7 7 6 7 8 7
25 23 20 18 17 15 14 13 12 11 9 8 7 7 6 4 3 2 1 1 1 0 2 3 0 0 1 5 7 5 6 8 10 16 16 14 15 13 13 13 14 15 13 11 11 10 9 5 1 2 2 4 3 3 4 5 5 3 2 4 5 6 4 2 2 8 7 4 3 3 2 4 5 8 7 7 9 9 8 7 8 7 7 8 6 6 7 6
24 22 19 17 16 14 12 11 11 10 8 6 4 3 2 1 1 1 1 2 2 1 2 1 3 1 2 7 7 5 6 11 12 13 15 16 16 15 11 7 9 12 10 8 6 5 4 2 1 1 1 2 1 3 4 4 4 4 2 4 6 7 3 1 4 8 6 5 5 4 3 4 6 6 7 7 10 10 9 9 9 8 7 7 6 6 6 7
23 21 18 16 14 13 11 10 11 9 7 4 1 1 3 3 4 4 4 4 4 3 1 2 2 2 3 6 4 4 5 10 14 12 13 14 15 15 11 6 5 5 3 2 3 2 1 2 1 1 3 3 1 4 1 5 4 3 3 2 5 5 2 4 4 5 9 5 6 6 6 7 8 4 7 8 10 11 11 10 8 8 7 6 7 7 6 7
22 19 17 15 14 13 10 10 10 8 5 2 3 3 4 4 3 3 3 3 2 1 1 2 3 1 2 5 6 7 6 9 12 10 11 11 12 12 10 7 3 3 1 2 2 2 2 1 2 2 3 4 5 6 9 10 8 5 6 4 5 5 4 6 5 7 13 6 6 10 8 8 8 6 8 9 9 10 8 7 6 7 7 6 7 7 6 7
21 18 17 15 14 12 10 9 10 7 3 3 5 2 2 2 1 0 0 2 4 5 3 5 7 3 4 6 5 4 2 7 7 8 11 10 9 6 4 3 1 1 2 3 3 2 3 2 2 5 7 9 10 9 10 10 9 8 9 7 4 4 6 3 4 6 11 7 6 11 9 9 9 8 10 9 8 8 7 7 8 8 7 7 8 8 7 8
20 18 17 15 14 12 9 9 8 6 3 6 5 2 1 1 2 0 2 4 8 10 8 8 10 8 9 8 9 7 2 2 1 5 12 12 7 2 2 1 2 2 4 4 2 1 4 4 8 11 12 13 12 9 7 7 10 11 9 6 5 4 6 4 4 4 9 7 5 8 7 8 10 9 9 8 9 10 11 10 11 11 9 7 8 8 7 6
20 18 17 16 14 11 9 9 7 6 4 7 5 2 3 3 4 1 2 3 7 10 11 9 8 10 13 14 19 17 6 1 2 4 10 10 6 3 2 1 3 4 3 1 1 1 1 5 12 15 12 11 11 8 7 8 9 8 4 3 5 4 4 3 3 5 8 5 3 7 9 7 8 7 7 10 12 11 12 12 12 12 11 8 8 8 7 6
20 18 17 15 12 10 8 8 6 4 5 7 6 5 4 3 3 8 4 1 6 5 8 7 7 7 9 12 17 15 7 4 3 5 9 10 4 5 4 2 4 4 2 2 4 3 2 8 16 16 9 7 10 10 8 6 4 3 3 3 5 6 2 2 5 5 7 4 3 6 4 3 4 3 5 10 10 6 7 8 8 9 11 10 10 9 9 9
19 17 17 14 12 9 7 6 4 3 3 7 11 11 6 4 9 13 5 1 5 4 6 8 7 5 8 9 9 8 6 4 5 4 9 10 3 3 5 4 4 4 5 6 7 6 8 13 15 10 7 10 11 11 6 1 4 5 5 4 6 8 4 4 6 4 3 3 4 6 4 4 3 4 6 7 6 4 4 6 6 7 8 8 8 8 10 10
19 17 16 14 11 7 4 5 4 4 4 7 11 9 5 5 9 9 3 2 3 4 4 6 5 5 10 9 6 7 3 2 5 5 10 12 6 3 3 3 3 4 8 7 5 6 11 14 12 7 7 10 9 7 4 1 3 5 5 6 8 11 9 6 5 1 5 3 4 6 3 5 4 5 7 4 5 7 4 6 9 8 7 6 7 8 9 9
19 15 15 14 9 5 4 3 4 4 3 5 8 14 9 4 4 3 2 4 3 3 1 3 3 5 7 5 4 3 3 3 7 8 13 15 11 5 3 2 1 4 6 5 3 3 6 7 6 6 5 3 3 3 3 4 3 3 5 6 7 8 8 6 3 2 2 3 6 4 5 4 4 4 8 5 6 8 6 7 10 7 7 8 7 8 8 8
18 14 14 13 6 2 1 1 4 1 2 6 14 18 10 3 0 1 3 5 3 2 2 1 1 3 5 5 5 5 1 4 3 5 12 16 10 3 3 4 2 3 3 2 2 3 5 6 5 3 1 2 2 3 4 6 5 4 7 5 6 5 4 5 3 1 3 3 4 1 4 2 2 5 6 6 6 8 8 9 9 8 8 9 8 8 9 10
16 12 11 11 6 3 3 4 6 3 4 11 16 18 11 2 4 2 4 2 2 0 2 2 1 1 2 3 6 4 4 3 1 3 7 15 11 2 2 6 2 5 4 2 3 6 5 5 5 2 3 1 3 5 4 4 4 7 8 6 7 5 4 4 3 3 2 1 5 5 2 2 3 5 0 7 6 8 10 11 11 10 9 10 9 9 10 10
15 11 9 8 7 5 5 7 7 6 9 15 15 16 15 4 2 3 4 2 0 1 1 1 1 1 1 2 2 2 2 1 1 4 2 9 9 2 3 6 4 6 6 2 5 8 5 5 5 2 2 3 6 6 5 4 3 7 7 5 4 5 3 2 2 4 2 2 6 7 2 3 3 4 1 5 4 8 10 11 10 10 10 10 9 9 10 9
14 10 7 7 5 5 7 7 6 8 13 15 14 14 13 6 4 5 2 0 1 2 0 1 1 2 4 3 2 2 2 3 2 2 2 3 4 2 2 3 3 4 5 2 4 8 8 7 5 3 4 5 4 4 5 4 4 3 4 5 6 7 6 4 0 1 3 2 9 9 6 5 0 3 2 3 4 7 8 7 7 8 9 9 9 9 10 9
13 10 8 7 6 5 5 4 4 9 12 14 14 11 8 5 4 4 1 1 1 1 1 1 2 3 6 5 2 3 3 4 2 3 4 3 1 2 2 3 1 2 4 4 5 8 7 7 6 4 5 4 1 3 4 4 4 4 5 5 5 7 6 5 4 4 3 5 8 6 6 7 3 4 5 7 8 6 7 7 8 10 10 10 9 8 9 9
12 10 9 8 8 9 8 4 6 10 12 14 13 6 5 4 2 1 2 2 1 2 3 3 3 3 5 6 5 5 3 2 3 4 6 4 3 3 2 2 2 2 3 3 3 6 6 6 6 3 3 4 3 2 6 6 6 4 3 4 4 5 5 4 4 2 3 6 5 4 7 5 2 4 6 10 10 7 8 8 9 11 11 10 9 9 8 8
11 9 9 9 11 14 14 10 10 10 12 14 8 3 5 4 0 2 3 2 2 4 4 5 5 6 6 3 3 5 4 2 5 5 5 5 4 4 4 7 6 3 2 3 2 4 5 7 5 5 2 2 6 2 2 3 3 3 1 2 2 0 2 3 4 3 2 5 5 3 6 3 2 3 4 10 10 8 8 8 8 10 11 10 9 9 9 8
12 9 9 11 14 16 15 12 10 10 12 11 5 4 5 3 3 3 2 3 3 2 2 4 7 7 8 6 4 4 4 4 6 5 4 3 2 3 4 5 4 4 1 0 1 2 3 6 6 4 4 2 4 6 6 4 2 4 4 5 4 3 1 3 3 1 3 5 5 3 4 2 2 2 3 6 6 4 5 5 6 7 7 8 8 8 9 9
13 10 9 12 14 14 10 8 9 10 8 5 5 4 3 1 4 3 2 3 2 1 2 1 5 6 5 5 5 6 5 5 7 5 3 4 2 3 3 3 5 5 2 1 1 1 3 3 6 5 4 0 1 5 4 3 2 3 2 4 0 3 5 2 3 4 3 2 2 3 2 3 3 2 3 3 2 1 4 4 5 5 5 7 7 8 9 9
13 11 10 11 13 8 3 4 8 7 1 4 5 3 2 3 4 2 2 3 2 4 7 5 2 4 4 4 5 8 8 6 5 4 3 3 2 3 1 1 3 5 4 3 1 1 3 4 6 5 6 2 5 8 2 2 2 3 2 0 5 4 7 2 3 2 2 3 2 1 2 2 3 3 6 6 3 2 3 3 5 6 6 7 7 8 8 8
11 9 8 10 11 5 3 5 10 9 3 6 4 1 3 3 4 3 3 4 3 4 6 4 2 2 2 2 3 5 6 5 3 4 2 1 2 5 4 2 2 1 3 4 1 1 1 4 5 6 8 7 6 7 3 2 2 3 3 4 4 2 4 3 1 4 5 2 3 2 4 1 1 1 4 6 3 3 2 3 3 5 6 7 6 7 8 9
10 7 7 9 7 7 8 10 13 9 4 5 1 3 3 4 4 2 5 5 4 5 4 2 3 4 4 3 4 4 2 1 1 3 1 1 2 3 3 2 4 7 4 6 3 2 2 2 5 6 9 8 7 8 7 9 10 6 4 3 1 2 2 2 1 1 3 2 2 3 4 1 1 3 3 3 5 6 5 5 3 4 6 6 6 7 8 8
6 3 4 5 8 12 13 15 12 6 4 3 1 3 2 4 5 4 8 7 4 5 4 2 3 3 4 4 5 7 7 4 4 1 1 2 1 1 2 2 4 8 9 9 4 2 3 2 4 6 8 7 5 7 6 9 12 8 5 4 3 2 2 3 0 2 1 2 1 2 4 1 2 4 5 7 8 6 6 6 5 6 6 6 6 7 7 7
2 2 4 3 9 16 18 15 7 5 2 1 2 3 3 4 4 5 10 9 5 4 4 4 5 4 3 5 5 5 5 5 6 3 2 3 2 0 4 3 2 5 8 9 5 1 3 3 3 7 7 4 2 4 4 4 7 7 6 7 6 3 1 2 2 1 1 1 2 2 2 2 5 3 4 7 7 5 5 5 4 5 5 6 5 5 6 6
3 2 3 3 16 23 18 9 3 2 1 2 2 3 4 3 3 6 9 10 6 4 4 5 6 4 3 6 5 4 4 4 6 5 2 4 3 1 5 5 3 3 5 7 6 3 2 2 2 4 6 3 2 5 3 4 3 2 2 4 4 4 4 4 4 4 1 2 1 4 3 3 6 3 2 4 5 4 2 1 1 2 3 2 1 2 5 6
2 1 2 7 22 24 13 3 1 2 2 3 3 4 3 1 2 7 8 8 6 4 4 5 6 5 4 5 4 5 6 3 5 5 2 5 7 3 6 7 7 6 5 4 3 2 1 2 2 3 4 5 7 7 2 4 5 2 2 4 4 3 5 4 4 5 2 3 2 3 3 3 6 5 6 6 6 6 5 3 4 4 3 5 5 4 1 3
1 2 4 8 23 18 8 2 3 1 2 5 4 4 3 2 3 6 7 6 5 4 4 4 5 5 5 5 5 6 7 4 6 7 2 4 8 7 9 8 7 6 4 2 3 3 1 3 3 4 5 6 8 8 5 6 7 4 5 6 5 5 4 2 3 3 1 2 1 3 2 3 6 7 7 7 8 9 9 9 7 6 6 7 7 6 5 3
1 4 4 5 19 11 3 0 2 3 5 5 2 2 4 4 5 6 5 5 4 3 3 3 3 4 5 5 4 6 7 4 6 8 5 4 5 8 11 9 5 3 2 1 1 1 1 1 3 3 5 7 8 9 8 9 7 3 5 7 7 8 8 5 3 3 3 2 2 4 2 3 4 6 7 10 11 12 12 11 9 8 7 7 6 5 5 4
2 2 4 3 7 5 0 3 2 2 5 5 5 3 4 3 5 6 5 6 6 4 4 5 5 5 6 7 5 6 7 5 3 5 6 5 5 7 11 11 7 5 4 1 3 2 1 1 3 3 2 3 4 4 5 6 6 4 6 10 11 11 10 6 2 3 3 4 1 4 4 4 3 6 10 11 12 13 13 12 11 10 8 7 6 5 5 4
3 1 4 6 4 3 1 1 1 1 2 4 4 4 5 3 3 5 6 7 8 7 7 7 8 7 8 9 7 7 8 6 4 4 5 5 4 4 8 10 11 12 11 7 4 4 3 2 2 5 4 3 4 6 6 4 4 6 10 15 15 13 9 4 1 1 3 2 2 2 4 2 5 9 10 10 10 11 11 12 11 9 7 6 4 4 4 4
2 2 2 3 3 4 3 3 4 2 1 3 2 4 6 6 4 5 6 6 7 8 6 7 10 9 8 7 5 5 8 6 6 5 5 5 3 4 7 7 10 14 14 10 7 4 4 3 3 3 3 3 4 5 5 5 6 8 12 15 15 13 9 5 4 4 4 2 3 6 1 5 4 7 8 7 8 9 10 11 10 8 7 5 3 3 4 3
2 0 2 2 1 1 2 4 4 4 5 4 3 4 7 8 6 5 4 4 7 8 5 5 10 10 9 7 4 4 7 6 5 5 5 5 5 6 8 5 6 12 12 8 6 4 5 2 4 3 3 4 5 7 8 8 8 10 13 14 14 15 13 10 8 4 3 5 0 2 6 7 4 6 8 7 7 8 9 9 7 7 7 7 6 6 6 3
3 1 3 2 1 2 2 6 4 6 8 5 4 5 6 7 7 5 4 3 5 7 5 5 8 9 10 8 5 4 5 4 3 4 4 6 6 5 5 5 4 9 10 6 4 3 3 2 4 4 5 7 8 9 9 9 9 11 14 15 13 14 14 13 12 11 11 11 5 5 10 9 5 5 6 6 6 6 8 8 8 9 7 7 8 8 8 5
2 2 4 3 3 3 3 5 3 7 7 5 4 4 4 7 6 5 5 5 3 4 5 5 6 7 8 8 7 4 3 1 2 4 2 5 5 3 2 3 3 7 8 4 3 3 3 2 4 4 5 6 6 7 8 6 9 12 15 16 14 13 14 14 13 12 10 8 6 8 10 8 6 6 6 6 6 9 11 11 10 8 6 6 7 8 10 9
5 4 4 2 2 5 4 4 4 5 4 5 3 4 4 6 6 4 5 6 5 5 4 5 6 5 5 7 7 3 4 4 4 6 5 3 4 2 1 2 2 5 5 2 3 3 2 1 3 5 4 4 5 6 7 4 8 12 15 16 14 12 11 10 10 11 9 5 6 10 9 5 6 8 7 8 9 12 12 10 8 6 6 6 7 9 10 11
11 5 5 1 1 4 4 4 5 5 3 4 4 4 5 5 5 5 4 4 6 7 5 6 7 4 3 6 6 5 6 6 7 7 6 6 6 5 5 5 3 2 3 2 2 2 2 2 0 3 2 4 5 5 6 3 5 7 9 12 12 10 9 9 10 13 12 8 6 7 4 5 7 8 8 9 10 10 9 8 7 6 6 5 6 9 10 10
Wind_Direction
352 351 348 346 345 344 343 343 342 339 339 337 336 337 336 339 341 342 338 336 335 331 331 328 325 326 326 327 324 320 318 314 308 293 258 265 256 181 182 161 178 251 245 254 270 285 308 306 294 298 312 305 241 239 253 226 165 120 181 122 131 174 173 183 189 193 155 158 191 214 188 134 160 199 142 59 67 91 91 47 24 348 319 139 137 144 147 145
350 349 346 344 342 340 340 340 340 338 336 335 336 336 335 338 339 339 337 338 336 331 332 329 328 330 331 332 327 326 324 318 308 284 257 244 193 179 189 190 214 256 237 242 263 266 284 280 290 325 337 295 249 231 240 227 162 160 166 111 181 194 172 190 176 189 153 151 184 179 160 148 170 167 125 93 131 131 102 52 23 74 106 123 134 140 141 144
347 346 344 341 339 338 337 336 338 336 333 334 334 334 335 336 337 336 336 338 336 332 333 331 332 335 339 336 333 334 328 327 315 272 271 187 200 206 196 205 231 247 240 250 262 254 244 262 298 339 334 294 266 245 259 247 193 177 124 109 228 187 149 211 171 181 169 147 148 140 144 147 178 172 122 137 169 167 151 159 137 148 137 128 136 136 140 148
344 343 341 339 338 337 336 334 335 333 331 332 332 334 333 333 334 333 335 337 334 333 332 332 335 341 345 337 337 337 331 344 325 236 125 115 170 184 190 209 229 231 243 257 258 254 255 273 303 334 308 291 273 266 261 233 212 173 130 154 213 158 128 217 190 179 156 141 142 138 123 129 182 192 146 151 151 202 211 198 177 167 150 139 144 143 144 150
341 341 339 338 337 335 335 334 332 329 328 330 331 332 331 331 331 331 335 334 333 333 332 333 336 345 347 338 340 335 341 49 264 229 151 118 130 150 180 201 215 224 236 246 251 263 266 269 294 324 268 264 282 301 249 229 185 95 221 157 169 148 140 211 196 163 136 127 130 134 142 155 166 170 168 155 156 220 206 197 188 168 150 147 151 149 149 153
339 339 338 336 335 334 333 333 330 327 325 327 329 328 328 327 326 330 332 332 332 332 333 334 337 348 345 337 339 334 5 121 265 219 164 127 124 141 156 186 202 212 216 226 242 263 268 257 298 316 287 288 301 295 275 268 156 135 259 157 160 160 152 190 186 159 138 127 142 157 168 150 130 179 192 161 189 234 186 169 167 164 151 149 152 152 155 161
338 337 335 333 333 331 330 330 327 324 323 324 325 324 323 322 324 327 327 330 330 328 332 335 341 349 344 341 339 1 93 249 259 195 176 142 130 145 148 175 188 193 198 210 227 237 282 323 329 288 277 280 287 281 294 322 127 140 170 163 167 170 157 166 171 163 147 147 163 155 146 147 156 181 171 173 222 219 157 153 151 159 156 151 155 159 161 165
337 335 333 331 330 329 328 326 322 320 318 318 319 318 316 317 321 322 325 327 325 325 326 330 343 348 349 353 348 15 33 252 208 170 181 162 151 160 152 162 172 182 189 203 209 197 316 336 287 267 275 276 299 310 319 350 19 117 148 171 170 170 159 161 162 161 156 156 150 135 149 185 182 165 150 196 222 174 147 146 147 156 168 163 162 166 167 167
335 333 331 329 328 327 325 322 319 315 311 311 312 310 310 312 316 319 321 321 321 319 317 327 342 353 357 357 69 26 280 219 159 163 178 170 170 169 157 158 170 178 184 209 218 206 226 280 254 232 268 290 325 330 327 9 7 320 263 181 166 164 163 163 160 166 169 160 139 139 171 208 196 146 145 223 215 165 149 146 153 159 176 182 167 164 164 161
334 331 329 328 327 325 322 320 316 311 308 306 306 305 305 307 312 315 315 317 317 311 309 323 334 9 12 11 82 37 260 179 161 172 169 169 179 180 173 170 172 176 181 207 219 212 197 211 239 244 274 288 317 325 321 6 306 290 291 175 166 165 169 171 169 178 170 156 154 148 174 212 209 161 194 244 217 159 149 148 162 167 178 182 168 155 156 159
333 330 328 328 327 324 320 318 314 310 307 304 304 300 301 304 308 312 312 313 310 306 310 319 338 10 24 63 94 219 212 181 186 170 157 170 186 195 192 185 180 183 189 205 229 229 228 242 260 297 278 275 318 318 308 307 317 289 298 32 175 166 167 185 173 184 160 153 169 134 122 238 258 224 214 216 188 155 153 153 171 175 181 180 170 159 157 167
334 331 328 327 326 323 320 317 314 311 307 304 300 296 298 302 305 308 308 308 300 300 311 316 359 35 36 81 181 220 197 199 208 169 161 165 179 213 204 198 196 197 203 206 242 251 256 263 270 299 266 276 324 312 299 302 322 311 330 27 198 177 227 219 180 189 175 155 160 120 65 298 224 229 220 192 164 155 157 159 176 182 185 181 171 168 167 173
334 331 329 327 325 322 319 317 315 312 307 301 295 296 298 298 304 307 306 301 285 284 307 314 279 62 40 286 237 248 270 287 236 182 179 174 163 230 220 217 219 226 229 224 253 272 274 274 267 250 263 294 295 278 296 298 320 320 331 65 174 248 273 226 187 182 183 159 155 133 50 254 227 230 226 190 161 155 163 169 179 184 189 184 168 170 173 176
334 332 330 327 325 322 320 319 317 312 305 298 294 295 294 296 306 308 305 292 278 296 305 281 199 102 66 261 269 296 299 293 247 202 192 188 193 223 240 238 234 234 236 239 257 280 295 306 307 273 274 274 275 297 322 317 331 328 326 22 159 215 258 229 182 168 176 182 159 131 208 255 244 238 230 196 165 161 169 175 180 184 188 188 172 169 176 179
335 333 331 329 326 324 324 322 317 310 302 295 294 294 292 297 304 311 317 284 289 331 311 125 173 111 25 278 281 304 277 264 236 213 201 200 203 215 241 243 238 228 226 241 259 279 297 319 332 287 291 301 328 328 330 334 339 4 327 315 268 212 260 273 184 177 169 179 161 119 187 267 261 236 226 188 165 166 173 177 181 186 188 190 183 170 175 178
337 335 334 331 328 327 327 325 317 308 300 292 291 291 288 300 307 309 309 276 327 30 111 80 64 115 37 281 293 305 254 233 229 216 206 211 215 223 240 242 236 228 228 240 255 271 284 317 323 205 259 302 332 343 347 350 330 342 171 249 262 229 249 340 265 223 186 139 166 147 170 254 263 231 212 177 169 168 175 183 182 189 191 190 191 176 174 166
339 337 336 332 329 328 328 325 317 307 298 286 287 291 283 348 84 113 97 101 77 113 135 41 350 14 253 281 304 297 239 219 224 223 216 222 226 232 246 245 227 224 232 242 252 273 294 337 279 260 339 314 334 79 22 328 286 303 215 215 240 232 215 192 270 251 209 144 167 207 211 240 269 229 183 178 176 169 180 191 187 189 191 194 192 176 173 163
341 339 337 334 331 329 325 321 316 307 295 277 257 106 118 114 128 120 109 118 91 55 347 315 352 51 267 278 274 258 248 215 217 225 223 224 226 233 245 246 212 207 239 293 271 274 340 331 338 333 337 319 269 120 134 251 228 244 260 235 233 248 249 203 233 216 191 166 145 179 230 253 272 232 179 187 182 179 189 190 189 189 187 192 189 177 170 164
344 343 340 337 333 329 322 317 315 306 294 246 153 128 123 118 132 132 112 121 102 85 269 219 175 129 274 258 250 270 272 206 199 210 213 210 216 230 242 242 205 161 119 23 286 222 159 351 9 328 291 255 235 192 198 230 230 234 263 257 215 247 267 204 217 205 179 157 142 176 210 230 242 220 189 194 189 187 191 184 189 194 188 185 185 181 167 162
347 345 342 338 333 329 318 312 312 300 281 172 157 143 140 113 68 304 151 190 211 217 222 187 190 234 289 282 286 294 231 175 177 194 198 197 200 220 248 236 102 114 184 176 239 247 142 160 250 238 239 240 241 221 216 241 256 264 268 271 247 251 282 232 232 220 166 152 197 194 201 214 218 213 198 193 189 193 192 188 195 196 192 184 181 183 169 163
348 345 341 337 331 326 315 309 307 292 238 172 176 158 174 195 106 342 275 239 234 229 238 221 202 232 260 274 292 292 263 150 173 199 196 194 176 159 273 203 103 270 242 197 214 3 120 183 235 230 229 239 245 235 231 252 262 258 249 276 301 260 264 245 210 197 154 157 214 195 192 219 218 207 196 183 187 202 197 191 197 196 194 183 174 181 172 154
348 344 341 338 332 325 316 309 301 285 219 185 194 214 270 235 165 309 311 267 260 222 224 238 219 244 257 261 269 271 275 205 270 251 195 182 157 162 235 161 159 238 260 151 108 25 149 228 243 236 229 240 256 257 246 246 247 246 249 316 310 278 282 281 231 182 162 163 230 205 192 224 232 203 188 190 195 207 202 196 197 192 190 182 173 175 166 149
347 344 344 343 337 329 321 317 308 287 222 197 206 222 255 243 249 318 342 240 286 227 206 226 214 243 258 261 260 249 241 193 191 256 199 167 158 179 178 176 205 245 276 188 186 187 214 243 243 239 233 239 263 268 248 249 270 281 312 318 290 288 312 302 281 209 172 152 179 189 178 261 264 188 200 211 207 217 213 211 210 195 191 186 177 170 164 163
346 345 348 347 341 335 332 347 352 318 259 229 234 239 253 284 294 316 354 138 290 275 217 206 191 218 237 251 248 211 219 200 167 229 194 166 157 173 177 198 207 254 256 222 205 204 230 247 246 241 230 226 244 259 249 307 333 306 287 262 262 282 246 212 262 221 133 62 139 123 55 313 251 182 223 225 213 244 228 209 222 212 200 184 170 170 171 172
347 346 350 350 347 350 5 35 41 8 323 245 250 277 292 288 291 303 14 66 297 288 239 197 174 227 235 237 224 187 184 226 199 194 177 177 175 156 203 205 180 243 259 252 230 221 241 247 244 235 225 216 216 242 245 100 335 309 279 241 241 269 265 245 263 168 62 10 205 133 76 289 268 200 228 217 199 230 221 200 214 211 198 184 172 177 181 176
347 346 352 352 352 20 51 68 37 2 312 262 310 336 323 289 315 285 99 48 316 273 231 164 158 218 229 209 189 153 63 289 228 180 172 192 192 163 219 251 176 247 262 273 260 239 258 257 235 218 214 193 159 254 249 145 108 303 261 242 241 252 258 255 271 60 82 241 234 161 147 251 295 237 228 201 197 223 223 217 217 206 196 195 188 183 182 176
346 344 353 355 355 28 80 45 4 335 243 314 343 346 325 251 131 157 102 38 319 237 161 201 126 178 204 183 142 95 78 272 262 174 178 192 195 140 213 250 313 266 266 360 345 278 274 307 309 246 162 86 125 258 252 139 120 260 255 255 261 246 233 247 273 305 233 245 293 359 121 154 268 260 224 162 183 228 233 231 222 210 203 198 195 186 181 177
344 341 349 358 358 319 281 314 329 283 286 327 340 352 349 243 196 137 83 57 298 204 150 207 215 196 211 161 133 129 212 234 23 278 197 181 187 92 198 234 244 261 274 37 309 281 274 299 301 322 32 3 211 227 227 135 143 249 254 247 256 254 235 246 272 275 266 357 312 303 77 109 269 297 262 140 180 229 230 230 221 209 202 195 193 188 184 180
343 336 336 349 351 336 319 305 302 320 338 340 344 352 354 340 165 73 74 106 233 263 199 129 163 245 37 104 154 205 254 345 170 241 184 170 196 171 192 220 206 253 271 182 236 274 276 277 267 248 294 247 233 230 198 153 204 254 272 272 292 318 313 316 268 263 342 26 267 257 165 124 273 299 99 139 196 233 230 230 220 205 199 195 191 183 183 180
340 329 319 326 326 330 327 296 298 357 357 351 350 349 353 7 72 63 40 137 178 233 277 53 211 156 118 122 267 254 225 278 251 180 141 182 219 226 211 207 175 244 283 233 247 269 267 282 287 250 234 224 236 242 206 207 246 287 346 354 350 342 344 358 291 145 60 285 259 245 186 131 100 274 212 172 214 219 217 226 217 199 194 196 193 182 180 178
340 326 307 302 294 293 306 295 343 358 348 344 345 349 5 23 75 86 96 238 219 251 349 285 238 135 133 150 224 244 208 249 270 136 185 222 290 308 318 350 24 356 335 316 295 289 284 291 279 226 198 193 243 311 291 299 332 24 42 36 358 333 348 360 353 49 109 247 269 242 164 116 115 251 228 225 247 225 194 205 206 194 190 195 193 182 181 178
340 324 302 289 277 264 255 266 327 330 330 343 351 8 50 48 50 117 233 304 324 217 197 194 206 169 162 168 200 217 197 243 237 176 180 190 192 210 204 199 174 37 333 283 290 306 301 280 262 233 189 160 116 344 321 331 347 10 40 46 11 328 343 343 322 348 194 250 274 172 129 97 204 243 218 219 246 241 197 198 198 190 186 188 187 180 178 176
340 322 303 286 272 265 264 280 304 309 322 342 0 53 75 70 322 230 227 282 254 203 178 169 181 169 159 166 230 214 188 228 241 210 181 174 192 217 220 209 172 120 248 247 303 329 328 314 339 30 342 154 127 157 293 319 303 282 238 107 119 218 342 303 289 326 279 275 286 147 107 55 290 283 218 209 229 226 202 198 190 185 181 177 179 174 170 173
339 325 305 282 273 272 273 280 286 292 315 341 27 72 61 67 257 251 223 249 247 207 166 161 171 166 163 185 219 190 181 230 228 200 164 152 188 250 248 229 174 146 206 291 330 11 23 332 346 13 297 217 155 194 188 169 219 233 187 139 137 163 176 253 247 292 280 274 303 360 65 122 196 259 231 218 236 206 176 186 176 171 168 158 158 161 165 174
337 324 309 286 279 278 273 266 267 276 307 1 60 68 76 177 267 289 275 269 291 29 335 207 159 167 187 207 218 191 182 223 219 197 180 161 177 237 221 201 175 167 133 75 264 359 57 288 279 307 309 53 270 249 175 124 283 258 149 103 309 197 165 213 221 200 234 285 331 352 56 170 196 281 331 353 322 93 107 146 149 137 140 139 146 163 170 176
335 322 310 286 278 275 256 230 231 232 215 72 63 55 172 207 239 263 295 292 335 9 345 331 163 177 211 220 230 213 199 212 194 178 210 165 122 304 272 163 185 170 140 128 242 354 40 290 284 331 356 5 283 272 227 122 261 289 13 251 253 196 141 140 287 266 55 52 324 7 62 352 356 360 350 3 1 25 71 146 153 139 146 149 158 171 176 182
339 324 301 279 272 250 162 178 186 182 122 79 82 222 236 240 231 236 329 338 353 14 4 348 15 19 285 233 241 219 203 222 174 152 229 161 71 329 342 34 357 45 144 137 86 359 70 294 299 11 1 331 317 309 311 62 53 336 299 247 261 2 95 108 342 343 29 43 303 20 81 28 49 144 321 342 315 281 277 213 162 130 152 167 174 179 182 186
334 320 291 271 239 172 161 177 171 154 91 71 100 244 244 259 258 330 360 347 354 24 33 22 28 20 11 6 333 351 46 312 199 155 215 96 98 325 345 22 11 17 45 92 75 345 50 321 297 10 358 329 358 15 357 356 357 332 272 248 53 37 340 354 56 8 346 321 304 21 51 62 132 201 251 279 252 253 267 253 194 160 178 186 186 189 189 185
339 342 307 268 180 160 168 175 162 119 67 61 286 263 251 262 281 359 18 7 10 34 30 358 18 30 29 33 4 8 32 3 337 113 129 70 116 291 3 25 17 25 42 72 82 297 57 55 289 327 344 333 11 30 9 344 342 343 344 1 34 133 208 288 358 139 276 270 160 40 19 4 249 234 220 225 233 234 244 243 214 196 198 197 197 194 190 185
24 51 300 271 163 162 167 164 132 67 75 157 200 245 280 278 295 1 27 28 30 36 14 352 15 28 20 28 23 17 25 359 356 24 56 46 90 313 10 25 26 32 49 65 66 11 57 60 305 312 336 3 28 360 4 357 341 349 12 12 357 340 325 314 338 42 128 146 117 83 42 287 270 262 226 235 245 243 240 241 238 237 223 215 218 200 194 194
44 39 287 202 155 156 153 140 79 80 169 266 220 240 275 264 327 3 25 35 44 42 20 16 24 28 25 22 18 10 10 1 13 31 32 29 62 50 358 14 37 34 49 52 39 21 33 37 345 322 336 360 295 295 344 30 359 357 57 26 349 342 16 23 343 326 54 86 138 134 117 285 291 332 358 308 308 313 298 195 195 274 232 188 140 190 203 202
59 49 270 164 157 153 132 102 305 163 192 284 230 235 272 199 21 9 19 28 42 42 14 19 23 22 30 22 13 16 20 24 29 32 56 54 55 25 340 3 32 47 70 60 2 314 136 90 45 322 296 281 280 286 337 33 13 30 49 12 358 7 31 29 319 301 344 9 357 105 106 276 298 355 25 17 6 358 359 34 56 41 60 78 63 46 65 163
85 257 284 181 171 157 95 38 295 351 253 259 229 244 322 51 34 19 20 16 31 37 13 17 17 15 26 25 25 24 18 31 39 27 40 70 50 11 347 7 35 47 65 59 335 311 38 68 31 322 300 300 309 321 356 21 23 20 354 355 358 352 354 325 279 281 325 330 2 63 62 281 316 349 11 22 28 32 24 20 25 28 39 53 51 39 29 54
297 259 303 197 188 186 61 174 276 334 286 296 360 19 16 47 43 33 24 6 12 31 17 4 2 12 19 21 40 43 33 40 39 29 31 43 30 2 356 6 38 63 65 153 189 323 330 50 54 12 344 338 340 346 349 353 8 13 332 335 339 338 343 333 319 6 358 273 156 109 139 238 295 345 11 17 25 35 29 25 29 28 30 35 37 32 15 14
340 251 310 310 204 211 142 172 194 313 306 343 26 23 12 40 41 37 40 24 14 23 29 4 1 26 28 21 28 35 43 54 39 38 41 14 360 357 354 1 26 39 13 232 154 108 91 107 93 85 27 331 326 326 315 320 334 331 322 332 336 337 339 334 342 18 324 280 148 123 171 216 298 0 23 20 25 31 24 24 33 34 37 35 24 14 356 353
17 49 321 332 354 17 325 227 77 49 317 20 31 353 14 50 26 25 47 40 14 19 44 24 11 28 25 20 26 13 18 37 39 48 47 10 352 334 343 8 34 28 11 9 32 71 93 64 97 138 163 207 220 243 259 283 321 326 337 344 343 336 329 324 345 310 237 248 341 270 182 132 358 1 15 17 28 36 26 23 27 24 28 33 24 2 334 330
40 52 15 340 335 360 348 336 18 34 322 76 59 351 29 53 26 16 35 42 25 23 44 32 21 30 16 6 31 13 357 18 39 34 21 5 346 320 335 13 41 28 20 18 13 42 88 27 7 116 162 229 229 259 290 333 349 353 357 352 348 351 359 18 349 286 210 138 314 294 2 70 16 354 3 5 23 39 35 30 28 18 8 1 352 327 311 331
44 242 23 48 267 297 350 320 338 21 28 57 59 23 44 48 32 24 17 39 43 29 34 30 17 22 20 14 54 31 357 10 24 7 1 360 348 344 347 357 34 30 24 17 10 53 101 38 356 40 24 348 350 345 346 360 9 19 15 360 358 11 25 36 15 348 94 96 346 316 60 69 31 360 3 352 0 30 41 41 40 32 12 350 336 315 301 330
35 17 335 10 292 232 252 293 320 47 37 32 47 35 47 47 29 16 4 31 44 25 41 54 12 12 28 35 66 61 14 19 3 335 2 8 349 352 354 333 2 25 22 13 360 34 86 8 353 40 29 356 354 349 351 10 31 34 20 9 14 21 25 33 28 31 62 75 69 61 65 63 37 2 353 342 350 28 44 44 40 34 18 352 336 317 306 316
30 351 330 357 337 297 286 315 6 67 38 26 50 25 37 56 33 11 28 53 59 20 33 55 27 29 45 46 61 65 17 3 282 287 326 360 340 344 3 317 332 3 5 1 335 359 67 323 327 55 45 339 330 336 345 26 63 47 22 12 18 22 23 27 25 22 43 61 52 48 54 45 18 1 350 349 16 39 39 35 35 27 8 352 338 320 312 313
349 286 329 20 332 327 328 341 25 75 42 17 32 14 35 53 31 23 47 50 57 45 41 62 52 45 54 48 47 21 315 299 268 264 268 280 272 232 223 279 341 351 337 318 310 340 70 330 325 65 61 305 295 330 337 33 76 49 24 11 11 21 24 23 24 20 19 26 36 41 38 3 346 359 356 356 20 37 36 29 28 21 0 351 336 319 314 313
357 322 349 37 215 338 347 357 23 56 43 2 13 35 57 67 51 54 54 17 31 45 55 75 66 44 34 28 5 311 283 275 262 258 257 247 237 217 219 248 268 274 267 289 308 279 135 122 30 80 79 280 283 316 335 31 66 40 18 4 3 21 27 23 25 20 14 18 36 47 25 316 329 358 359 357 11 25 33 26 19 17 358 341 324 312 311 310